Back to catalog

THORAD AGENA D DEB

AliveSSO
NORAD 42538·DEBRIS·🇺🇸 United States

Launched Apr 8, 1970 from Vandenberg Space Force Base

Loading…

Next Passes (next 24 hours)

TLE

FreshSource: Space-Track

Epoch: Sep 14, 2026, 21:17 UTC

1 42538U 70025SU  26257.88739420  .00000036  00000-0  12214-3 0  9991
2 42538 100.1587 279.7381 0001275 114.1218 246.0051 13.54704027633313

Track THORAD AGENA D DEB in real time with AllMySat

Download on the App Store